Location: Kailua
(21.4020°N, 157.7390°W)
Time: 01:44:50
(UTC-10:00)

Cosmos 2221 Rocket - Visible Passes

Search period start: 04 August 2015 00:00
Search period end: 14 August 2015 00:00
Orbit: 622 x 648 km, 82.5° (Epoch: 03 August)

Date Brightness Start Highest point End Pass type
(mag) Time Alt. Az. Time Alt. Az. Time Alt. Az.
04 Aug 6.5 05:02:48 10° SE 05:05:27 16° E 05:08:21 10° NE visible
05 Aug 5.2 05:23:35 10° SSE 05:27:43 39° E 05:31:57 10° NNE visible
07 Aug 6.7 04:32:40 10° ESE 04:34:28 13° E 04:36:34 10° ENE visible
08 Aug 5.5 04:52:49 10° SSE 04:56:44 31° E 05:00:45 10° NNE visible
09 Aug 3.8 05:14:32 10° S 05:19:01 79° E 05:23:33 10° N visible
10 Aug 4.1 05:37:09 10° SSW 05:41:24 40° W 05:45:38 10° NNW visible
11 Aug 5.8 04:22:09 10° SE 04:25:45 24° E 04:29:27 10° NE visible
12 Aug 4.1 04:43:35 10° S 04:48:01 61° E 04:52:29 10° NNE visible
13 Aug 3.8 05:06:19 12° SSW 05:10:21 52° W 05:14:47 10° N visible
